Weather History for Durango, Mexico

Change the Weather History Date:

Saturday, January 5, 2013

  Actual Average Record
Temperature  
Mean Temperature 56 °F -  
Max Temperature 75 °F 70 °F 125 °F (1998)
Min Temperature 37 °F 34 °F 17 °F (1999)
Degree Days  
Heating Degree Days 9    
Growing Degree Days 6 (Base 50)    
Moisture  
Dew Point 30 °F    
Average Humidity 50    
Maximum Humidity 93    
Minimum Humidity 8    
Precipitation  
Precipitation 0.00 in - - ()
Sea Level Pressure  
Sea Level Pressure 30.15 in    
Wind  
Wind Speed 3 mph ()    
Max Wind Speed 15 mph    
Max Gust Speed -    
Visibility 10.5 miles    
Events Fog    
Averages and records for this station are not official NWS values.
T = Trace of Precipitation, MM = Missing Value Source: Averaged Metar Reports

Daily Weather History Graph

Daily Weather History Graph

Search for Another Location

Airport:

Trip Planner

Search our weather history database for the weather conditions in past years. The results will help you decide how hot, cold, wet, or windy it might be!

Date:

Astronomy

Jan. 05, 2013 Rise Set
Actual Time 7:42 AM CST 6:25 PM CST
Civil Twilight 7:17 AM CST 6:49 PM CST
Nautical Twilight 6:49 AM CST 7:17 PM CST
Astronomical Twilight 6:21 AM CST 7:45 PM CST
Moon 1:13 AM CST (1/5) 12:57 PM CST (1/5)
Length of Visible Light 11h 31m
Length of Day
10h 42m
Last Quarter, 44% of the Moon is Illuminated
Jan 5
Last Quarter
Jan 11
New
Jan 18
First Quarter
Jan 26
Full
Feb 3
Last Quarter

Hourly Weather History & Observations

Time (CST) Temp. Windchill Dew Point Humidity Pressure Visibility Wind Dir Wind Speed Gust Speed Precip Events Conditions
2:55 AM 49 °F - 42 °F 69% 29.99 in 6 mi Calm Calm - -   Clear
3:04 AM 41.0 °F 39.0 °F 37.4 °F 87% 30.04 in 8.0 mi North 3.5 mph - N/A   Scattered Clouds
3:45 AM 39.2 °F 35.9 °F 35.6 °F 87% 30.27 in 8.0 mi North 4.6 mph - N/A   Scattered Clouds
4:41 AM 39.2 °F 35.0 °F 37.4 °F 93% 30.28 in 8.0 mi SE 5.8 mph - N/A   Scattered Clouds
5:47 AM 33.8 °F - 32.0 °F 93% 30.10 in 8.0 mi Calm Calm - N/A   Clear
5:55 AM 40 °F - 37 °F 87% 30.08 in 6 mi Calm Calm - -  
6:41 AM 33.8 °F - 32.0 °F 93% 30.30 in 8.0 mi Calm Calm - N/A   Clear
7:41 AM 33.8 °F 30.8 °F 30.2 °F 87% 30.32 in 3.0 mi ESE 3.5 mph - N/A Fog Patches of Fog
8:50 AM 45 °F - 39 °F 72% 30.19 in 19 mi Calm Calm - -   Scattered Clouds
8:51 AM 35.6 °F - 33.8 °F 93% 30.24 in 12.0 mi Calm Calm - N/A   Clear
9:47 AM 48.2 °F - 39.2 °F 71% 30.36 in 12.0 mi Calm Calm - N/A   Clear
10:48 AM 57.2 °F - 41.0 °F 55% 30.35 in 14.0 mi Calm Calm - N/A   Clear
11:48 AM 60.8 °F - 33.8 °F 36% 30.06 in 14.0 mi South 5.8 mph - N/A   Clear
11:54 AM 61 °F - 42 °F 37% 30.16 in 25 mi SSE 2.2 mph - -   Scattered Clouds
12:46 PM 64.4 °F - 30.2 °F 28% 30.27 in 14.0 mi South 4.6 mph - N/A   Clear
1:44 PM 68.0 °F - 26.6 °F 21% 30.22 in 13.0 mi SSW 10.4 mph - N/A   Clear
2:44 PM 73 °F - 37 °F 17% 29.98 in 31 mi WSW 6.7 mph - -  
2:45 PM 69.8 °F - 21.2 °F 16% 29.96 in 14.0 mi SE 6.9 mph - N/A   Clear
3:43 PM 71.6 °F - 6.8 °F 8% 30.17 in 14.0 mi SSW 12.7 mph - N/A   Clear
4:40 PM 69.8 °F - 8.6 °F 9% 30.17 in 14.0 mi SSW 13.8 mph - N/A   Clear
5:47 PM 68.0 °F - 8.6 °F 10% 30.01 in 14.0 mi SSW 15.0 mph - N/A   Clear
5:55 PM 69 °F - 31 °F 14% 29.89 in 25 mi SW 8.9 mph - -  
6:40 PM 60.8 °F - 14.0 °F 16% 30.20 in 12.0 mi South 11.5 mph - N/A   Clear
7:46 PM 55.4 °F - 17.6 °F 23% 30.23 in 10.0 mi SSW 8.1 mph - N/A   Clear
8:42 PM 55.4 °F - 24.8 °F 31% 30.16 in 10.0 mi NNW 4.6 mph - N/A   Clear
8:55 PM 57 °F - 33 °F 28% 29.90 in 6 mi Calm Calm - -  
9:48 PM 50.0 °F - 28.4 °F 43% 30.29 in 10.0 mi NNW 4.6 mph - N/A   Clear
10:47 PM 46.4 °F 44.3 °F 32.0 °F 57% 30.31 in 10.0 mi NNW 4.6 mph - N/A   Clear
11:55 PM 47 °F - 37 °F 58% 29.96 in 6 mi Calm Calm - -